PROFILE

 METAR AND TAF INFORMATION
ADDS - METARS form results

(0007 UTC 10 December 2019)
http://aviationweather.gov/metar/data/
 
LFMN 100000Z 05010KT CAVOK 14/M01 Q1009 NOSIG
LFMN 092330Z 06013KT CAVOK 14/M01 Q1009 NOSIG
TAF AMD LFMN 092334Z 0923/1103 06015KT CAVOK BECMG 1000/1002 VRB05KT BECMG 1012/1014 24010KT BECMG 1016/1018 36010KT 

 AIRPORT MAP

 RUNWAY INFORMATION
Runway 04L Runway length 8995 ft Runway width 148 ft
Runway elevation 10 ft Runway displaced threshold 0 ft Runway heading 45
Runway 22R Runway length 8995 ft Runway width 148 ft
Runway elevation 10 ft Runway displaced threshold 575 ft Runway heading 225
Runway 04R Runway length 9712 ft Runway width 148 ft
Runway elevation 10 ft Runway displaced threshold 0 ft Runway heading 45
Runway 22L Runway length 9712 ft Runway width 148 ft
Runway elevation 12 ft Runway displaced threshold 0 ft Runway heading 225

 AIRPORT FREQUENCIES
Type A/D Name NICE APP Frequency 124.175 MHZ
Type ATIS Name NICE ATIS Frequency 129.6 MHZ
Type GND Name NICE GND Frequency 121.775 MHZ
Type TWR Name NICE TWR Frequency 118.7 MHZ

 AIRPORT NEAR NAVIGATION AIDS
Type VOR-DME Name Nice Cote D Azur Frequency 109650 KHZ
Type VOR-DME Name Cagnes Sur Mer Frequency 109200 KHZ
Type NDB Name Nice Frequency 399 KHZ
Type VOR-DME Name Nice Frequency 112400 KHZ